Regional Weather Roundup
Issued by NWS Upton, NY

Current Version | Previous Version | Text Only | Print | Product List | Glossary On
Versions: 1 2 3 4 5 6 7 8 9 10 11 12 13 14 15 16 17 18 19 20 21 22 23 24 25 26 27 28 29 30 31 32 33 34 35 36 37 38 39 40 41 42 43 44 45 46 47 48 49 50
000 ASUS41 KOKX 271205 RWROKX REGIONAL WEATHER ROUNDUP NATIONAL WEATHER SERVICE NEW YORK NY 700 AM EST TUE JAN 27 2015 NOTE: "FAIR" INDICATES FEW OR NO CLOUDS BELOW 12,000 FEET WITH NO SIGNIFICANT WEATHER AND/OR OBSTRUCTIONS TO VISIBILITY. NYZ071-072-176-178-NJZ106-104-271300- NEW YORK CITY METRO AREA CITY SKY/WX TMP DP RH WIND PRES REMARKS CENTRAL PARK CLOUDY 22 12 65 MISG 29.68R LAGUARDIA APRT LGT SNOW 22 14 71 N21G33 29.66R WCI 6 KENNEDY INTL LGT SNOW 21 15 78 N21G31 29.65R VSB 1 WCI 5 NEWARK/LIBERTY FLURRIES 22 15 75 N17G24 29.69R WCI 8 BRNX BOT. GARD N/A N/A N/A N/A N13 29.68R TETERBORO FLURRIES 22 12 65 N15G24 29.68R WCI 9 $$ NYZ177-179-078>081-271300- LONG ISLAND NEW YORK CITY SKY/WX TMP DP RH WIND PRES REMARKS FARMINGDALE HAZE 22 17 81 N17G23 29.61R VSB 3/4 WCI 8 ISLIP HVY SNOW 21 18 88 N20G28 29.56R VSB 1/4 WCI 6 SHIRLEY FOG 20 17 88 N22G31 29.57R VSB 1/2 WCI 3 WESTHAMPTON FOG 20 17 88 N18 29.54S VSB 1/2 WCI 5 MONTAUK POINT N/A 22 20 92 N26G39 29.46F WCI 5 $$ NYZ052-065-067-271300- HUDSON VALLEY CITY SKY/WX TMP DP RH WIND PRES REMARKS WHITE PLAINS LGT SNOW 17 11 77 N29G39 29.60R VSB 1 WCI -2 NEWBURGH LGT SNOW 18 12 79 N14G23 29.71S WCI 4 MONTGOMERY CLOUDY 18 13 80 N3 29.71R POUGHKEEPSIE CLOUDY 18 10 71 N13G22 29.73S WCI 5 ALBANY FLURRIES 13 2 61 N12 29.83S WCI -1 $$ NJZ001-105-106-008-010-013-015-019>022-104-271300- NEW JERSEY CITY SKY/WX TMP DP RH WIND PRES REMARKS NEWARK/LIBERTY FLURRIES 22 15 75 N17G24 29.69R WCI 8 TETERBORO FLURRIES 22 12 65 N15G24 29.68R WCI 9 CALDWELL LGT SNOW 21 13 71 N9G22 29.70R WCI 11 MORRISTOWN LGT SNOW 23 16 74 N8G25 29.70R WCI 14 SOMERVILLE LGT SNOW 24 19 81 NW8 29.70R WCI 15 SUSSEX LGT SNOW 22 17 81 NW5 29.70S WCI 16 ANDOVER N/A 21 17 84 VRB6 29.70S WCI 13 TRENTON LGT SNOW 24 19 81 N13 29.69S WCI 12 MILLVILLE LGT SNOW 26 20 77 N17G28 29.70R WCI 13 ATLANTIC CITY LGT SNOW 23 20 88 N20G28 29.66R FOG WCI 8 WRIGHTSTOWN LGT SNOW 23 19 86 N18G25 29.67R FOG WCI 9 TOMS RIVER CLOUDY 21 18 86 N15G25 29.66S WCI 8 BELMAR CLOUDY 21 12 68 NW20G25 29.65R WCI 6 $$ PAZ047>061-062-071-271300- EASTERN PENNSYLVANIA CITY SKY/WX TMP DP RH WIND PRES REMARKS PHILADELPHIA FLURRIES 26 21 81 N14 29.73S WCI 14 ALLENTOWN CLOUDY 24 16 71 NW9 29.74R WCI 14 SCRANTON LGT SNOW 18 12 77 N8 29.76R WCI 8 $$ CTZ002-004>006-009-010-012-RIZ004-006-007-MAZ004-011-015-271300- SOUTHERN NEW ENGLAND IN CT CITY SKY/WX TMP DP RH WIND PRES REMARKS BRADLEY INTL SNOW 17 12 80 N21G36 29.62F VSB 1/2 WCI 0 HARTFORD SNOW 17 13 84 N16G30 29.62S VSB 1/2 WCI 2 DANBURY LGT SNOW 18 9 68 N12G21 29.64S WCI 5 WTRBRY/OXFORD CLOUDY 19 9 63 N23G29 29.57R WCI 2 BRIDGEPORT CLOUDY 21 18 88 N14G26 29.60R FOG WCI 8 MERIDEN HAZE 18 13 80 N21G28 29.60S VSB 3/4 WCI 1 NEW HAVEN LGT SNOW 19 15 84 N22G31 29.56R VSB 3/4 WCI 2 CHESTER HVY SNOW 18 14 86 N20G29 29.52R VSB 1/4 WCI 1 GROTON FOG 17 15 92 N29G39 29.47F VSB 1/4 WCI -2 WILLIMANTIC FOG 18 15 88 MISG 29.56F VSB 1/4 IN RI CITY SKY/WX TMP DP RH WIND PRES REMARKS PROVIDENCE HVY SNOW 17 13 84 N29G41 29.53S VSB 1/4 WCI -2 BLOCK ISLAND N/A 21 16 79 N28G46 29.42F VSB 3/4 WCI 3 WESTERLY FOG 18 15 88 N22G36 29.49F VSB 1/4 WCI 1 IN MA CITY SKY/WX TMP DP RH WIND PRES REMARKS BOSTON HVY SNOW 15 12 88 N24G36 29.60R VSB 1/4 WCI -4 WORCESTER FOG 13 10 88 N20G39 29.53S VSB 1/4 WCI -5 WESTFIELD LGT SNOW 17 11 77 N23G31 29.65F WCI -1 PROVINCETOWN CLOUDY 27 25 93 N43G68 29.43S VSB<1/4 WCI 8 NANTUCKET SNOW 32 30 92 N51G67 29.20F VSB 1/2 WCI 14 $$ ANZ330-335-338-340-345-350-353-355-271300- COASTAL MARINE OBSERVATIONS STATION/POSITION TIME SKY/WX TEMP WIND PRES VSBY WAVE AIR SEA DIR/SP/G HT/PER (UTC) (F) (DEG/KT/KT) (MB) (MI) (FT/S) NY HARB ENTRANCE 1200 25 43 340/ 27/ 35 1002.4 12/12 4S FIRE IS 1200 38 N/A 11/13 20S FIRE ISLAND 1100 43 1000.1 14/ 8 23SW MTP 1200 N/A 16/11 HUDSON CANYON NOT AVBL EXECUTION ROCKS 1200 21 34 350/ 19/ 27 N/A WESTERN LI SOUND 1200 21 350/ 19/ 25 N/A 3/ 6 CENTRAL LI SOUND 1100 20 36 350/ 25/ 31 N/A 5/ 5 EASTERN LI SOUND NOT AVBL ROBBINS REEF 1200 22 340/ 20/ 25 1003.5 $$ >>>>>>>>>>>>>>>>>>>>>>>>>>>> KEY <<<<<<<<<<<<<<<<<<<<<<<<<<< > < > SKY/WX - SKY CONDITION/PRESENT WEATHER < > TMP - TEMPERATURE IN FAHRENHEIT < > DP - DEWPOINT IN FAHRENHEIT < > RH - RELATIVE HUMIDITY IN PERCENT < > WIND - DIRECTION AND SPEED IN MPH < > PRES - MEAN SEA LEVEL PRESSURE IN INCHES OF HG < > WCI - WIND CHILL INDEX < > VSB - VISIBILITY IN MILES < > HX - HEAT INDEX < > TC - TEMPERATURE IN CELSIUS < > VRB - VARIABLE WIND DIRECTION < > < >>>>>>>>>>>>>>>>>>>>>>>>>>>> KEY <<<<<<<<<<<<<<<<<<<<<<<<<<<

USA.gov is the U.S. government's official web portal to all federal, state and local government web resources and services.